Location: Theydon Bois
(51.6750°N, 0.1050°E)
Time: 08:03:11
(UTC+01:00)

Daily predictions for brighter satellites

Satellite Brightness Start Highest point End
(mag) Time Altitude Azimuth Time Altitude Azimuth Time Altitude Azimuth
ARGOS 3.3 21:58:54 10° SSE 22:04:20 80° WSW 22:09:47 10° NNW
Cosmos 2123 Rocket 4.4 21:59:24 10° SSE 22:05:17 48° E 22:11:13 10° NNE
Cosmos 1151 Rocket 3.9 22:01:36 10° N 22:05:41 36° ENE 22:09:44 10° SE
Cosmos 1743 Rocket 4.3 22:06:17 10° SSE 22:10:12 34° E 22:14:09 10° NNE
H-2A R/B 3.1 22:06:23 10° SE 22:10:16 34° ENE 22:14:06 10° N
Helios 1B rocket 4.0 22:06:32 10° N 22:10:26 39° WNW 22:14:17 10° SW
Cosmos 1814 Rocket 4.1 22:09:32 10° NNW 22:14:56 87° ENE 22:20:16 10° SSE
Cosmos 2084 3.2 22:13:07 10° SSW 22:17:00 59° SE 22:20:45 10° NE
Cosmos 1674 3.2 22:14:53 10° SSW 22:18:36 61° WNW 22:22:21 10° N
Cosmos 1455 3.8 22:16:03 10° NNE 22:19:11 23° ENE 22:22:17 10° ESE
IGS 5A 4.0 22:15:37 10° SE 22:19:36 46° ENE 22:23:37 10° N
Cosmos 1802 Rocket 4.4 22:15:04 10° NNW 22:21:10 65° W 22:27:13 10° S
Cosmos 1725 Rocket 4.1 22:16:07 10° N 22:22:26 84° E 22:28:40 10° S
Cosmos 841 Rocket 3.6 22:21:42 10° NNW 22:27:00 72° ENE 22:32:13 10° SSE
SPOT 1/Viking Rocket 3.8 22:24:35 10° S 22:29:43 70° WSW 22:34:54 10° NNW
Cosmos 1763 Rocket 3.5 22:24:37 10° NNW 22:29:48 89° WSW 22:34:53 10° SSE
ERBS 2.9 22:27:47 10° WNW 22:31:03 43° SW 22:34:03 11° SSE
KORONAS-FOTON 4.2 22:28:00 10° SSW 22:31:48 65° WNW 22:35:35 10° N
EO 1 Delta rocket 4.0 22:29:26 10° S 22:34:05 72° W 22:38:50 10° NNW
Lacrosse 4 Rocket 4.0 22:30:26 10° W 22:34:11 28° NW 22:38:01 10° NNE
USA 234 3.4 22:29:31 10° ENE 22:35:52 50° SE 22:42:10 10° SSW
Cosmos 2227 4.2 22:32:43 10° SSW 22:38:25 72° ESE 22:44:08 10° NNE
Meteor 1-27 4.4 22:34:36 10° N 22:40:29 76° ENE 22:46:07 11° SSE
Lacrosse 5 2.9 22:40:22 10° WNW 22:44:53 33° SW 22:49:09 11° SSE
Cosmos 371 Rocket 3.8 22:40:15 10° NNW 22:44:59 56° WSW 22:49:41 10° S
Cosmos 220 Rocket 4.2 22:41:46 10° S 22:46:05 56° ESE 22:50:23 10° NNE
SPOT 5 4.1 22:41:33 10° SSW 22:46:07 39° W 22:50:57 10° NNW
Cosmos 1867 3.7 22:42:57 10° SW 22:48:25 85° NW 22:53:56 10° NE
Cosmos 1703 4.1 22:45:28 12° SSE 22:48:45 36° E 22:52:27 10° NNE
deb Chang Zheng 4 4.2 22:49:54 10° NNE 22:54:02 40° E 22:57:39 13° SSE
Cosmos 2297 Rocket 4.3 22:50:01 10° WSW 22:55:04 32° NW 23:00:07 10° NNE
Cosmos 2058 3.2 22:53:17 11° S 22:57:09 55° E 23:01:18 10° NNE
ALOS 2 4.5 22:58:33 10° ESE 23:01:47 20° ENE 23:05:01 10° NNE
Cosmos 1707 Rocket 4.4 22:57:33 10° N 23:01:47 40° ENE 23:05:17 14° SE
COSMOS 2406 4.3 22:56:56 10° NNW 23:02:15 39° NE 23:07:33 10° ESE
Cosmos 2263 Rocket 2.5 22:59:57 10° S 23:05:13 46° ESE 23:10:34 10° NE
RESURS DK-1 4.3 23:03:20 10° WNW 23:06:34 22° WSW 23:09:48 10° SSW
PSLV R/B 2.9 23:08:56 18° SSE 23:10:54 83° W 23:13:47 10° NNW
Cosmos 1503 Rocket 4.5 23:07:17 13° S 23:11:34 42° ESE 23:16:26 10° NE
ATLAS 5 CENTAUR R/B 2.8 23:07:35 10° WSW 23:12:20 53° NW 23:17:38 10° NE
H-2A R/B 3.4 23:09:29 10° SSW 23:14:20 34° W 23:19:17 10° NNW
Cosmos 1500 Rocket 3.8 23:10:49 10° SSW 23:15:17 75° WNW 23:19:46 10° N
Cosmos 2233 Rocket 4.3 23:09:48 10° NNW 23:15:59 66° W 23:21:52 11° S
Cosmos 2151 3.0 23:12:51 10° SSW 23:17:10 83° WNW 23:21:30 10° N
Abrixas rocket 4.0 23:15:50 10° WSW 23:18:04 17° SSW 23:18:57 16° S
SL-19 R/B 4.2 23:14:10 10° NNE 23:19:29 75° ESE 23:24:59 10° SSW
SL-14 R/B 4.5 23:17:21 10° SW 23:21:07 41° WNW 23:24:52 10° N
CZ-4 R/B 3.9 23:16:29 10° NNE 23:21:23 66° ESE 23:25:32 14° S
SME Rocket 3.2 23:18:45 17° SSE 23:21:43 80° ENE 23:26:46 10° NNW
Tiangong 1 3.2 23:21:26 10° SW 23:21:43 11° SSW 23:21:43 11° SSW
Cosmos 1626 2.1 23:21:17 14° S 23:24:27 90° E 23:28:12 10° N
CZ-3B DEB 4.4 23:14:42 10° W 23:26:14 77° N 23:39:27 10° E
Terra 2.7 23:22:59 11° SSW 23:27:19 42° W 23:31:52 10° NNW
CZ-4B R/B 3.7 23:22:52 10° NNE 23:28:09 63° ESE 23:32:30 15° S
Cosmos 540 Rocket 3.6 23:27:37 10° NNW 23:32:47 70° WSW 23:36:37 18° SSE
Cosmos 1805 Rocket 3.7 23:31:08 18° S 23:34:12 59° E 23:38:30 10° NNE
CZ-2C R/B 3.7 23:34:43 15° SE 23:39:20 56° ENE 23:44:50 10° N
Cosmos 1844 Rocket 4.1 23:37:04 15° SE 23:39:48 22° ESE 23:43:57 10° NE
Cosmos 1633 Rocket 3.8 23:37:40 19° SSE 23:40:17 39° E 23:44:22 10° NNE
Cosmos 1943 4.4 23:36:34 10° NW 23:41:30 32° WSW 23:45:55 12° SSW
Cosmos 1933 4.4 23:41:58 10° N 23:45:47 36° ENE 23:48:26 17° SE
H-2A R/B 3.4 23:42:48 12° SSW 23:46:18 31° W 23:50:07 10° NNW
Cosmos 1513 Rocket 4.5 23:45:16 10° N 23:51:34 87° W 23:56:15 18° S
Cosmos 1869 3.4 23:50:57 10° NNW 23:54:55 72° W 23:57:20 22° S
Cosmos 1455 3.3 23:51:24 10° NNW 23:55:01 37° W 23:57:42 16° SSW
